Year,Month,Day,Hour,Minute,Value (Times are PST for temperature in C)
2009,04,24,00,00,6.80
2009,04,24,00,01,6.80
2009,04,24,00,02,6.90
2009,04,24,00,03,6.90
2009,04,24,00,04,6.90
2009,04,24,00,05,6.90
2009,04,24,00,06,6.90
2009,04,24,00,07,6.90
2009,04,24,00,08,6.90
2009,04,24,00,09,6.90
2009,04,24,00,10,6.80
2009,04,24,00,11,6.80
2009,04,24,00,12,6.80
2009,04,24,00,13,6.80
2009,04,24,00,14,6.80
2009,04,24,00,15,6.90
2009,04,24,00,16,6.90
2009,04,24,00,17,6.90
2009,04,24,00,18,7.00
2009,04,24,00,19,7.00
2009,04,24,00,20,7.00
2009,04,24,00,21,6.90
2009,04,24,00,22,6.90
2009,04,24,00,23,6.90
2009,04,24,00,24,6.90
2009,04,24,00,25,6.90
2009,04,24,00,26,6.90
2009,04,24,00,27,6.90
2009,04,24,00,28,6.90
2009,04,24,00,29,6.90
2009,04,24,00,30,6.90
2009,04,24,00,31,6.90
2009,04,24,00,32,6.90
2009,04,24,00,33,6.90
2009,04,24,00,34,6.90
2009,04,24,00,35,6.90
2009,04,24,00,36,6.90
2009,04,24,00,37,6.90
2009,04,24,00,38,6.80
2009,04,24,00,39,6.80
2009,04,24,00,40,6.80
2009,04,24,00,41,6.80
2009,04,24,00,42,6.80
2009,04,24,00,43,6.80
2009,04,24,00,44,6.80
2009,04,24,00,45,6.80
2009,04,24,00,46,6.80
2009,04,24,00,47,6.70
2009,04,24,00,48,6.70
2009,04,24,00,49,6.70
2009,04,24,00,50,6.70
2009,04,24,00,51,6.70
2009,04,24,00,52,6.70
2009,04,24,00,53,6.70
2009,04,24,00,54,6.70
2009,04,24,00,55,6.70
2009,04,24,00,56,6.70
2009,04,24,00,57,6.70
2009,04,24,00,58,6.70
2009,04,24,00,59,6.60
2009,04,24,01,00,6.60
2009,04,24,01,01,6.60
2009,04,24,01,02,6.60
2009,04,24,01,03,6.60
2009,04,24,01,04,6.60
2009,04,24,01,05,6.50
2009,04,24,01,06,6.40
2009,04,24,01,07,6.40
2009,04,24,01,08,6.30
2009,04,24,01,09,6.30
2009,04,24,01,10,6.30
2009,04,24,01,11,6.20
2009,04,24,01,12,6.20
2009,04,24,01,13,6.20
2009,04,24,01,14,6.20
2009,04,24,01,15,6.20
2009,04,24,01,16,6.20
2009,04,24,01,17,6.10
2009,04,24,01,18,6.10
2009,04,24,01,19,6.10
2009,04,24,01,20,6.10
2009,04,24,01,21,6.00
2009,04,24,01,22,6.00
2009,04,24,01,23,5.90
2009,04,24,01,24,5.90
2009,04,24,01,25,5.90
2009,04,24,01,26,5.90
2009,04,24,01,27,5.80
2009,04,24,01,28,5.80
2009,04,24,01,29,5.80
2009,04,24,01,30,5.80
2009,04,24,01,31,5.80
2009,04,24,01,32,5.80
2009,04,24,01,33,5.80
2009,04,24,01,34,5.80
2009,04,24,01,35,5.80
2009,04,24,01,36,5.80
2009,04,24,01,37,5.80
2009,04,24,01,38,5.80
2009,04,24,01,39,5.90
2009,04,24,01,40,6.00
2009,04,24,01,41,6.10
2009,04,24,01,42,6.10
2009,04,24,01,43,6.20
2009,04,24,01,44,6.20
2009,04,24,01,45,6.30
2009,04,24,01,46,6.30
2009,04,24,01,47,6.30
2009,04,24,01,48,6.30
2009,04,24,01,49,6.30
2009,04,24,01,50,6.30
2009,04,24,01,51,6.30
2009,04,24,01,52,6.30
2009,04,24,01,53,6.30
2009,04,24,01,54,6.20
2009,04,24,01,55,6.20
2009,04,24,01,56,6.20
2009,04,24,01,57,6.20
2009,04,24,01,58,6.20
2009,04,24,01,59,6.20
2009,04,24,02,00,6.10
2009,04,24,02,01,6.10
2009,04,24,02,02,6.10
2009,04,24,02,03,6.00
2009,04,24,02,04,6.00
2009,04,24,02,05,5.90
2009,04,24,02,06,5.90
2009,04,24,02,07,5.80
2009,04,24,02,08,5.80
2009,04,24,02,09,5.70
2009,04,24,02,10,5.70
2009,04,24,02,11,5.60
2009,04,24,02,12,5.60
2009,04,24,02,13,5.60
2009,04,24,02,14,5.50
2009,04,24,02,15,5.50
2009,04,24,02,16,5.40
2009,04,24,02,17,5.40
2009,04,24,02,18,5.40
2009,04,24,02,19,5.40
2009,04,24,02,20,5.30
2009,04,24,02,21,5.30
2009,04,24,02,22,5.30
2009,04,24,02,23,5.20
2009,04,24,02,24,5.20
2009,04,24,02,25,5.20
2009,04,24,02,26,5.10
2009,04,24,02,27,5.10
2009,04,24,02,28,5.10
2009,04,24,02,29,5.10
2009,04,24,02,30,5.10
2009,04,24,02,31,5.10
2009,04,24,02,32,5.10
2009,04,24,02,33,5.10
2009,04,24,02,34,5.10
2009,04,24,02,35,5.10
2009,04,24,02,36,5.10
2009,04,24,02,37,5.20
2009,04,24,02,38,5.20
2009,04,24,02,39,5.20
2009,04,24,02,40,5.10
2009,04,24,02,41,5.10
2009,04,24,02,42,5.10
2009,04,24,02,43,5.10
2009,04,24,02,44,5.10
2009,04,24,02,45,5.20
2009,04,24,02,46,5.20
2009,04,24,02,47,5.20
2009,04,24,02,48,5.20
2009,04,24,02,49,5.20
2009,04,24,02,50,5.20
2009,04,24,02,51,5.20
2009,04,24,02,52,5.10
2009,04,24,02,53,5.10
2009,04,24,02,54,5.10
2009,04,24,02,55,5.10
2009,04,24,02,56,5.00
2009,04,24,02,57,5.00
2009,04,24,02,58,4.90
2009,04,24,02,59,4.90
2009,04,24,03,00,4.80
2009,04,24,03,01,4.80
2009,04,24,03,02,4.80
2009,04,24,03,03,4.70
2009,04,24,03,04,4.70
2009,04,24,03,05,4.70
2009,04,24,03,06,4.70
2009,04,24,03,07,4.60
2009,04,24,03,08,4.60
2009,04,24,03,09,4.60
2009,04,24,03,10,4.60
2009,04,24,03,11,4.60
2009,04,24,03,12,4.60
2009,04,24,03,13,4.60
2009,04,24,03,14,4.60
2009,04,24,03,15,4.50
2009,04,24,03,16,4.50
2009,04,24,03,17,4.50
2009,04,24,03,18,4.40
2009,04,24,03,19,4.40
2009,04,24,03,20,4.40
2009,04,24,03,21,4.30
2009,04,24,03,22,4.30
2009,04,24,03,23,4.20
2009,04,24,03,24,4.20
2009,04,24,03,25,4.10
2009,04,24,03,26,4.10
2009,04,24,03,27,4.00
2009,04,24,03,28,3.90
2009,04,24,03,29,3.90
2009,04,24,03,30,3.80
2009,04,24,03,31,3.80
2009,04,24,03,32,3.80
2009,04,24,03,33,3.70
2009,04,24,03,34,3.70
2009,04,24,03,35,3.70
2009,04,24,03,36,3.60
2009,04,24,03,37,3.60
2009,04,24,03,38,3.60
2009,04,24,03,39,3.50
2009,04,24,03,40,3.50
2009,04,24,03,41,3.50
2009,04,24,03,42,3.50
2009,04,24,03,43,3.40
2009,04,24,03,44,3.40
2009,04,24,03,45,3.40
2009,04,24,03,46,3.40
2009,04,24,03,47,3.40
2009,04,24,03,48,3.40
2009,04,24,03,49,3.40
2009,04,24,03,50,3.30
2009,04,24,03,51,3.30
2009,04,24,03,52,3.30
2009,04,24,03,53,3.30
2009,04,24,03,54,3.30
2009,04,24,03,55,3.30
2009,04,24,03,56,3.30
2009,04,24,03,57,3.30
2009,04,24,03,58,3.30
2009,04,24,03,59,3.30
2009,04,24,04,00,3.30
2009,04,24,04,01,3.30
2009,04,24,04,02,3.30
2009,04,24,04,03,3.20
2009,04,24,04,04,3.20
2009,04,24,04,05,3.20
2009,04,24,04,06,3.10
2009,04,24,04,07,3.10
2009,04,24,04,08,3.10
2009,04,24,04,09,3.10
2009,04,24,04,10,3.00
2009,04,24,04,11,3.00
2009,04,24,04,12,2.90
2009,04,24,04,13,2.90
2009,04,24,04,14,2.90
2009,04,24,04,15,2.90
2009,04,24,04,16,2.80
2009,04,24,04,17,2.80
2009,04,24,04,18,2.80
2009,04,24,04,19,2.80
2009,04,24,04,20,2.80
2009,04,24,04,21,2.80
2009,04,24,04,22,2.80
2009,04,24,04,23,2.80
2009,04,24,04,24,2.80
2009,04,24,04,25,2.80
2009,04,24,04,26,2.80
2009,04,24,04,27,2.80
2009,04,24,04,28,2.80
2009,04,24,04,29,2.80
2009,04,24,04,30,2.80
2009,04,24,04,31,2.80
2009,04,24,04,32,2.80
2009,04,24,04,33,2.80
2009,04,24,04,34,2.80
2009,04,24,04,35,2.80
2009,04,24,04,36,2.80
2009,04,24,04,37,2.80
2009,04,24,04,38,2.80
2009,04,24,04,39,2.80
2009,04,24,04,40,2.90
2009,04,24,04,41,2.90
2009,04,24,04,42,2.90
2009,04,24,04,43,3.00
2009,04,24,04,44,3.10
2009,04,24,04,45,3.20
2009,04,24,04,46,3.20
2009,04,24,04,47,3.30
2009,04,24,04,48,3.40
2009,04,24,04,49,3.50
2009,04,24,04,50,3.50
2009,04,24,04,51,3.50
2009,04,24,04,52,3.60
2009,04,24,04,53,3.60
2009,04,24,04,54,3.60
2009,04,24,04,55,3.50
2009,04,24,04,56,3.50
2009,04,24,04,57,3.50
2009,04,24,04,58,3.40
2009,04,24,04,59,3.40
2009,04,24,05,00,3.30
2009,04,24,05,01,3.20
2009,04,24,05,02,3.20
2009,04,24,05,03,3.10
2009,04,24,05,04,3.00
2009,04,24,05,05,2.90
2009,04,24,05,06,2.90
2009,04,24,05,07,2.80
2009,04,24,05,08,2.70
2009,04,24,05,09,2.70
2009,04,24,05,10,2.60
2009,04,24,05,11,2.50
2009,04,24,05,12,2.50
2009,04,24,05,13,2.40
2009,04,24,05,14,2.40
2009,04,24,05,15,2.30
2009,04,24,05,16,2.30
2009,04,24,05,17,2.30
2009,04,24,05,18,2.20
2009,04,24,05,19,2.20
2009,04,24,05,20,2.20
2009,04,24,05,21,2.20
2009,04,24,05,22,2.20
2009,04,24,05,23,2.10
2009,04,24,05,24,2.10
2009,04,24,05,25,2.10
2009,04,24,05,26,2.10
2009,04,24,05,27,2.10
2009,04,24,05,28,2.10
2009,04,24,05,29,2.10
2009,04,24,05,30,2.10
2009,04,24,05,31,2.10
2009,04,24,05,32,2.10
2009,04,24,05,33,2.10
2009,04,24,05,34,2.10
2009,04,24,05,35,2.10
2009,04,24,05,36,2.10
2009,04,24,05,37,2.10
2009,04,24,05,38,2.20
2009,04,24,05,39,2.20
2009,04,24,05,40,2.20
2009,04,24,05,41,2.30
2009,04,24,05,42,2.30
2009,04,24,05,43,2.30
2009,04,24,05,44,2.40
2009,04,24,05,45,2.50
2009,04,24,05,46,2.60
2009,04,24,05,47,2.70
2009,04,24,05,48,2.80
2009,04,24,05,49,2.80
2009,04,24,05,50,2.80
2009,04,24,05,51,2.90
2009,04,24,05,52,2.90
2009,04,24,05,53,2.90
2009,04,24,05,54,2.80
2009,04,24,05,55,2.80
2009,04,24,05,56,2.80
2009,04,24,05,57,2.70
2009,04,24,05,58,2.70
2009,04,24,05,59,2.60
2009,04,24,06,00,2.50
2009,04,24,06,01,2.50
2009,04,24,06,02,2.40
2009,04,24,06,03,2.30
2009,04,24,06,04,2.30
2009,04,24,06,05,2.20
2009,04,24,06,06,2.20
2009,04,24,06,07,2.20
2009,04,24,06,08,2.30
2009,04,24,06,09,2.30
2009,04,24,06,10,2.30
2009,04,24,06,11,2.30
2009,04,24,06,12,2.30
2009,04,24,06,13,2.30
2009,04,24,06,14,2.20
2009,04,24,06,15,2.20
2009,04,24,06,16,2.20
2009,04,24,06,17,2.20
2009,04,24,06,18,2.20
2009,04,24,06,19,2.20
2009,04,24,06,20,2.20
2009,04,24,06,21,2.20
2009,04,24,06,22,2.20
2009,04,24,06,23,2.20
2009,04,24,06,24,2.20
2009,04,24,06,25,2.10
2009,04,24,06,26,2.10
2009,04,24,06,27,2.10
2009,04,24,06,28,2.10
2009,04,24,06,29,2.10
2009,04,24,06,30,2.10
2009,04,24,06,31,2.10
2009,04,24,06,32,2.10
2009,04,24,06,33,2.10
2009,04,24,06,34,2.10
2009,04,24,06,35,2.10
2009,04,24,06,36,2.10
2009,04,24,06,37,2.10
2009,04,24,06,38,2.10
2009,04,24,06,39,2.10
2009,04,24,06,40,2.10
2009,04,24,06,41,2.10
2009,04,24,06,42,2.10
2009,04,24,06,43,2.10
2009,04,24,06,44,2.10
2009,04,24,06,45,2.10
2009,04,24,06,46,2.10
2009,04,24,06,47,2.10
2009,04,24,06,48,2.10
2009,04,24,06,49,2.10
2009,04,24,06,50,2.10
2009,04,24,06,51,2.10
2009,04,24,06,52,2.10
2009,04,24,06,53,2.10
2009,04,24,06,54,2.10
2009,04,24,06,55,2.10
2009,04,24,06,56,2.20
2009,04,24,06,57,2.20
2009,04,24,06,58,2.20
2009,04,24,06,59,2.20
2009,04,24,07,00,2.20
2009,04,24,07,01,2.30
2009,04,24,07,02,2.30
2009,04,24,07,03,2.30
2009,04,24,07,04,2.40
2009,04,24,07,05,2.40
2009,04,24,07,06,2.40
2009,04,24,07,07,2.50
2009,04,24,07,08,2.50
2009,04,24,07,09,2.50
2009,04,24,07,10,2.60
2009,04,24,07,11,2.60
2009,04,24,07,12,2.70
2009,04,24,07,13,2.70
2009,04,24,07,14,2.70
2009,04,24,07,15,2.80
2009,04,24,07,16,2.80
2009,04,24,07,17,2.90
2009,04,24,07,18,2.90
2009,04,24,07,19,2.90
2009,04,24,07,20,3.00
2009,04,24,07,21,3.10
2009,04,24,07,22,3.20
2009,04,24,07,23,3.30
2009,04,24,07,24,3.30
2009,04,24,07,25,3.30
2009,04,24,07,26,3.40
2009,04,24,07,27,3.40
2009,04,24,07,28,3.40
2009,04,24,07,29,3.50
2009,04,24,07,30,3.50
2009,04,24,07,31,3.60
2009,04,24,07,32,3.60
2009,04,24,07,33,3.70
2009,04,24,07,34,3.70
2009,04,24,07,35,3.80
2009,04,24,07,36,3.80
2009,04,24,07,37,3.90
2009,04,24,07,38,3.90
2009,04,24,07,39,4.00
2009,04,24,07,40,4.10
2009,04,24,07,41,4.10
2009,04,24,07,42,4.20
2009,04,24,07,43,4.30
2009,04,24,07,44,4.40
2009,04,24,07,45,4.50
2009,04,24,07,46,4.70
2009,04,24,07,47,4.80
2009,04,24,07,48,4.90
2009,04,24,07,49,5.00
2009,04,24,07,50,5.10
2009,04,24,07,51,5.20
2009,04,24,07,52,5.30
2009,04,24,07,53,5.50
2009,04,24,07,54,5.60
2009,04,24,07,55,5.70
2009,04,24,07,56,5.80
2009,04,24,07,57,6.00
2009,04,24,07,58,6.10
2009,04,24,07,59,6.20
2009,04,24,08,00,6.20
2009,04,24,08,01,6.30
2009,04,24,08,02,6.40
2009,04,24,08,03,6.50
2009,04,24,08,04,6.60
2009,04,24,08,05,6.70
2009,04,24,08,06,6.80
2009,04,24,08,07,7.10
2009,04,24,08,08,7.20
2009,04,24,08,09,7.40
2009,04,24,08,10,7.50
2009,04,24,08,11,7.60
2009,04,24,08,12,7.70
2009,04,24,08,13,7.70
2009,04,24,08,14,7.70
2009,04,24,08,15,7.80
2009,04,24,08,16,7.80
2009,04,24,08,17,7.80
2009,04,24,08,18,7.90
2009,04,24,08,19,7.90
2009,04,24,08,20,8.00
2009,04,24,08,21,8.00
2009,04,24,08,22,8.10
2009,04,24,08,23,8.20
2009,04,24,08,24,8.20
2009,04,24,08,25,8.30
2009,04,24,08,26,8.30
2009,04,24,08,27,8.30
2009,04,24,08,28,8.40
2009,04,24,08,29,8.40
2009,04,24,08,30,8.40
2009,04,24,08,31,8.40
2009,04,24,08,32,8.40
2009,04,24,08,33,8.40
2009,04,24,08,34,8.40
2009,04,24,08,35,8.30
2009,04,24,08,36,8.30
2009,04,24,08,37,8.30
2009,04,24,08,38,8.20
2009,04,24,08,39,8.20
2009,04,24,08,40,8.10
2009,04,24,08,41,8.10
2009,04,24,08,42,8.10
2009,04,24,08,43,8.10
2009,04,24,08,44,8.00
2009,04,24,08,45,8.10
2009,04,24,08,46,8.10
2009,04,24,08,47,8.10
2009,04,24,08,48,8.20
2009,04,24,08,49,8.20
2009,04,24,08,50,8.20
2009,04,24,08,51,8.30
2009,04,24,08,52,8.30
2009,04,24,08,53,8.20
2009,04,24,08,54,8.20
2009,04,24,08,55,8.20
2009,04,24,08,56,8.20
2009,04,24,08,57,8.30
2009,04,24,08,58,8.30
2009,04,24,08,59,8.40
2009,04,24,09,00,8.50
2009,04,24,09,01,8.60
2009,04,24,09,02,8.60
2009,04,24,09,03,8.70
2009,04,24,09,04,8.60
2009,04,24,09,05,8.60
2009,04,24,09,06,8.60
2009,04,24,09,07,8.50
2009,04,24,09,08,8.50
2009,04,24,09,09,8.60
2009,04,24,09,10,8.60
2009,04,24,09,11,8.60
2009,04,24,09,12,8.60
2009,04,24,09,13,8.70
2009,04,24,09,14,8.70
2009,04,24,09,15,8.70
2009,04,24,09,16,8.80
2009,04,24,09,17,8.80
2009,04,24,09,18,8.90
2009,04,24,09,19,8.90
2009,04,24,09,20,8.90
2009,04,24,09,21,8.90
2009,04,24,09,22,9.00
2009,04,24,09,23,9.00
2009,04,24,09,24,9.00
2009,04,24,09,25,8.90
2009,04,24,09,26,8.90
2009,04,24,09,27,8.90
2009,04,24,09,28,8.90
2009,04,24,09,29,8.90
2009,04,24,09,30,9.00
2009,04,24,09,31,9.00
2009,04,24,09,32,8.90
2009,04,24,09,33,8.90
2009,04,24,09,34,8.90
2009,04,24,09,35,8.90
2009,04,24,09,36,8.90
2009,04,24,09,37,9.00
2009,04,24,09,38,9.00
2009,04,24,09,39,8.90
2009,04,24,09,40,8.90
2009,04,24,09,41,8.90
2009,04,24,09,42,8.90
2009,04,24,09,43,8.90
2009,04,24,09,44,8.80
2009,04,24,09,45,8.90
2009,04,24,09,46,8.90
2009,04,24,09,47,9.00
2009,04,24,09,48,9.10
2009,04,24,09,49,9.10
2009,04,24,09,50,9.10
2009,04,24,09,51,9.10
2009,04,24,09,52,9.10
2009,04,24,09,53,9.10
2009,04,24,09,54,9.20
2009,04,24,09,55,9.20
2009,04,24,09,56,9.10
2009,04,24,09,57,9.20
2009,04,24,09,58,9.20
2009,04,24,09,59,9.30
2009,04,24,10,00,9.30
2009,04,24,10,01,9.40
2009,04,24,10,02,9.40
2009,04,24,10,03,9.50
2009,04,24,10,04,9.60
2009,04,24,10,05,9.60
2009,04,24,10,06,9.60
2009,04,24,10,07,9.70
2009,04,24,10,08,9.80
2009,04,24,10,09,9.90
2009,04,24,10,10,9.90
2009,04,24,10,11,9.80
2009,04,24,10,12,9.70
2009,04,24,10,13,9.70
2009,04,24,10,14,9.70
2009,04,24,10,15,9.70
2009,04,24,10,16,9.80
2009,04,24,10,17,9.80
2009,04,24,10,18,9.90
2009,04,24,10,19,9.90
2009,04,24,10,20,9.80
2009,04,24,10,21,9.80
2009,04,24,10,22,9.80
2009,04,24,10,23,9.80
2009,04,24,10,24,9.70
2009,04,24,10,25,9.70
2009,04,24,10,26,9.70
2009,04,24,10,27,9.60
2009,04,24,10,28,9.60
2009,04,24,10,29,9.70
2009,04,24,10,30,9.70
2009,04,24,10,31,9.70
2009,04,24,10,32,9.70
2009,04,24,10,33,9.80
2009,04,24,10,34,9.90
2009,04,24,10,35,10.00
2009,04,24,10,36,10.10
2009,04,24,10,37,10.10
2009,04,24,10,38,10.10
2009,04,24,10,39,10.10
2009,04,24,10,40,10.20
2009,04,24,10,41,10.30
2009,04,24,10,42,10.30
2009,04,24,10,43,10.20
2009,04,24,10,44,10.20
2009,04,24,10,45,10.20
2009,04,24,10,46,10.30
2009,04,24,10,47,10.30
2009,04,24,10,48,10.20
2009,04,24,10,49,10.00
2009,04,24,10,50,9.80
2009,04,24,10,51,9.60
2009,04,24,10,52,9.60
2009,04,24,10,53,9.70
2009,04,24,10,54,9.80
2009,04,24,10,55,9.90
2009,04,24,10,56,9.90
2009,04,24,10,57,10.00
2009,04,24,10,58,10.00
2009,04,24,10,59,10.10
2009,04,24,11,00,10.20
2009,04,24,11,01,10.30
2009,04,24,11,02,10.40
2009,04,24,11,03,10.20
2009,04,24,11,04,10.10
2009,04,24,11,05,10.00
2009,04,24,11,06,9.70
2009,04,24,11,07,9.60
2009,04,24,11,08,9.60
2009,04,24,11,09,9.60
2009,04,24,11,10,9.60
2009,04,24,11,11,9.60
2009,04,24,11,12,9.70
2009,04,24,11,13,9.60
2009,04,24,11,14,9.60
2009,04,24,11,15,9.60
2009,04,24,11,16,9.60
2009,04,24,11,17,9.60
2009,04,24,11,18,9.60
2009,04,24,11,19,9.60
2009,04,24,11,20,9.80
2009,04,24,11,21,9.80
2009,04,24,11,22,9.70
2009,04,24,11,23,9.70
2009,04,24,11,24,9.80
2009,04,24,11,25,9.80
2009,04,24,11,26,9.70
2009,04,24,11,27,9.70
2009,04,24,11,28,9.70
2009,04,24,11,29,9.70
2009,04,24,11,30,9.70
2009,04,24,11,31,9.70
2009,04,24,11,32,9.60
2009,04,24,11,33,9.60
2009,04,24,11,34,9.60
2009,04,24,11,35,9.60
2009,04,24,11,36,9.60
2009,04,24,11,37,9.60
2009,04,24,11,38,9.60
2009,04,24,11,39,9.60
2009,04,24,11,40,9.60
2009,04,24,11,41,9.60
2009,04,24,11,42,9.60
2009,04,24,11,43,9.60
2009,04,24,11,44,9.60
2009,04,24,11,45,9.60
2009,04,24,11,46,9.70
2009,04,24,11,47,9.80
2009,04,24,11,48,9.80
2009,04,24,11,49,9.70
2009,04,24,11,50,9.80
2009,04,24,11,51,9.80
2009,04,24,11,52,9.80
2009,04,24,11,53,9.80
2009,04,24,11,54,9.80
2009,04,24,11,55,9.80
2009,04,24,11,56,9.90
2009,04,24,11,57,9.90
2009,04,24,11,58,9.90
2009,04,24,11,59,9.90
2009,04,24,12,00,9.90
2009,04,24,12,01,9.90
2009,04,24,12,02,9.90
2009,04,24,12,03,9.90
2009,04,24,12,04,9.90
2009,04,24,12,05,10.00
2009,04,24,12,06,10.00
2009,04,24,12,07,10.00
2009,04,24,12,08,10.10
2009,04,24,12,09,10.10
2009,04,24,12,10,10.20
2009,04,24,12,11,10.30
2009,04,24,12,12,10.40
2009,04,24,12,13,10.40
2009,04,24,12,14,10.40
2009,04,24,12,15,10.30
2009,04,24,12,16,10.20
2009,04,24,12,17,10.20
2009,04,24,12,18,10.10
2009,04,24,12,19,10.00
2009,04,24,12,20,10.10
2009,04,24,12,21,10.10
2009,04,24,12,22,10.10
2009,04,24,12,23,10.10
2009,04,24,12,24,10.10
2009,04,24,12,25,10.00
2009,04,24,12,26,9.90
2009,04,24,12,27,9.90
2009,04,24,12,28,9.90
2009,04,24,12,29,10.10
2009,04,24,12,30,10.20
2009,04,24,12,31,10.30
2009,04,24,12,32,10.30
2009,04,24,12,33,10.20
2009,04,24,12,34,10.10
2009,04,24,12,35,10.00
2009,04,24,12,36,10.00
2009,04,24,12,37,9.90
2009,04,24,12,38,9.70
2009,04,24,12,39,9.60
2009,04,24,12,40,9.50
2009,04,24,12,41,9.30
2009,04,24,12,42,9.40
2009,04,24,12,43,9.50
2009,04,24,12,44,9.60
2009,04,24,12,45,9.70
2009,04,24,12,46,9.90
2009,04,24,12,47,10.00
2009,04,24,12,48,10.00
2009,04,24,12,49,10.00
2009,04,24,12,50,10.10
2009,04,24,12,51,10.10
2009,04,24,12,52,10.10
2009,04,24,12,53,10.00
2009,04,24,12,54,9.90
2009,04,24,12,55,9.80
2009,04,24,12,56,9.80
2009,04,24,12,57,9.80
2009,04,24,12,58,9.80
2009,04,24,12,59,9.70
2009,04,24,13,00,9.70
2009,04,24,13,01,9.60
2009,04,24,13,02,9.70
2009,04,24,13,03,9.60
2009,04,24,13,04,9.60
2009,04,24,13,05,9.60
2009,04,24,13,06,9.60
2009,04,24,13,07,9.60
2009,04,24,13,08,9.50
2009,04,24,13,09,9.40
2009,04,24,13,10,9.40
2009,04,24,13,11,9.40
2009,04,24,13,12,9.40
2009,04,24,13,13,9.50
2009,04,24,13,14,9.60
2009,04,24,13,15,9.60
2009,04,24,13,16,9.60
2009,04,24,13,17,9.60
2009,04,24,13,18,9.70
2009,04,24,13,19,9.60
2009,04,24,13,20,9.50
2009,04,24,13,21,9.40
2009,04,24,13,22,9.30
2009,04,24,13,23,9.20
2009,04,24,13,24,9.10
2009,04,24,13,25,9.20
2009,04,24,13,26,9.20
2009,04,24,13,27,9.30
2009,04,24,13,28,9.30
2009,04,24,13,29,9.50
2009,04,24,13,30,9.50
2009,04,24,13,31,9.60
2009,04,24,13,32,9.60
2009,04,24,13,33,9.70
2009,04,24,13,34,9.80
2009,04,24,13,35,9.90
2009,04,24,13,36,9.90
2009,04,24,13,37,10.00
2009,04,24,13,38,10.00
2009,04,24,13,39,10.00
2009,04,24,13,40,9.90
2009,04,24,13,41,9.80
2009,04,24,13,42,9.70
2009,04,24,13,43,9.60
2009,04,24,13,44,9.60
2009,04,24,13,45,9.50
2009,04,24,13,46,9.40
2009,04,24,13,47,9.40
2009,04,24,13,48,9.40
2009,04,24,13,49,9.40
2009,04,24,13,50,9.50
2009,04,24,13,51,9.60
2009,04,24,13,52,9.60
2009,04,24,13,53,9.70
2009,04,24,13,54,9.80
2009,04,24,13,55,9.80
2009,04,24,13,56,9.80
2009,04,24,13,57,9.80
2009,04,24,13,58,9.80
2009,04,24,13,59,9.90
2009,04,24,14,00,10.00
2009,04,24,14,01,10.10
2009,04,24,14,02,10.10
2009,04,24,14,03,10.10
2009,04,24,14,04,10.20
2009,04,24,14,05,10.20
2009,04,24,14,06,10.20
2009,04,24,14,07,10.10
2009,04,24,14,08,10.00
2009,04,24,14,09,9.90
2009,04,24,14,10,9.90
2009,04,24,14,11,9.80
2009,04,24,14,12,9.90
2009,04,24,14,13,9.90
2009,04,24,14,14,9.90
2009,04,24,14,15,9.90
2009,04,24,14,16,10.00
2009,04,24,14,17,10.00
2009,04,24,14,18,10.00
2009,04,24,14,19,10.10
2009,04,24,14,20,10.20
2009,04,24,14,21,10.20
2009,04,24,14,22,10.20
2009,04,24,14,23,10.30
2009,04,24,14,24,10.30
2009,04,24,14,25,10.30
2009,04,24,14,26,10.20
2009,04,24,14,27,10.20
2009,04,24,14,28,10.30
2009,04,24,14,29,10.40
2009,04,24,14,30,10.60
2009,04,24,14,31,10.70
2009,04,24,14,32,10.80
2009,04,24,14,33,11.00
2009,04,24,14,34,11.10
2009,04,24,14,35,11.30
2009,04,24,14,36,11.50
2009,04,24,14,37,11.70
2009,04,24,14,38,12.00
2009,04,24,14,39,12.30
2009,04,24,14,40,12.70
2009,04,24,14,41,12.90
2009,04,24,14,42,13.20
2009,04,24,14,43,13.40
2009,04,24,14,44,13.60
2009,04,24,14,45,13.80
2009,04,24,14,46,13.80
2009,04,24,14,47,13.90
2009,04,24,14,48,13.90
2009,04,24,14,49,14.00
2009,04,24,14,50,14.00
2009,04,24,14,51,14.10
2009,04,24,14,52,14.10
2009,04,24,14,53,14.20
2009,04,24,14,54,14.40
2009,04,24,14,55,14.60
2009,04,24,14,56,14.80
2009,04,24,14,57,15.00
2009,04,24,14,58,15.20
2009,04,24,14,59,15.40
2009,04,24,15,00,15.60
2009,04,24,15,01,15.60
2009,04,24,15,02,15.70
2009,04,24,15,03,15.70
2009,04,24,15,04,15.60
2009,04,24,15,05,15.60
2009,04,24,15,06,15.60
2009,04,24,15,07,15.60
2009,04,24,15,08,15.70
2009,04,24,15,09,15.60
2009,04,24,15,10,15.50
2009,04,24,15,11,15.40
2009,04,24,15,12,15.30
2009,04,24,15,13,15.20
2009,04,24,15,14,15.20
2009,04,24,15,15,15.20
2009,04,24,15,16,15.20
2009,04,24,15,17,15.30
2009,04,24,15,18,15.30
2009,04,24,15,19,15.50
2009,04,24,15,20,15.50
2009,04,24,15,21,15.50
2009,04,24,15,22,15.60
2009,04,24,15,23,15.60
2009,04,24,15,24,15.60
2009,04,24,15,25,15.60
2009,04,24,15,26,15.60
2009,04,24,15,27,15.60
2009,04,24,15,28,15.60
2009,04,24,15,29,15.50
2009,04,24,15,30,15.50
2009,04,24,15,31,15.50
2009,04,24,15,32,15.50
2009,04,24,15,33,15.60
2009,04,24,15,34,15.70
2009,04,24,15,35,15.70
2009,04,24,15,36,15.70
2009,04,24,15,37,15.60
2009,04,24,15,38,15.60
2009,04,24,15,39,15.50
2009,04,24,15,40,15.40
2009,04,24,15,41,15.40
2009,04,24,15,42,15.50
2009,04,24,15,43,15.50
2009,04,24,15,44,15.60
2009,04,24,15,45,15.60
2009,04,24,15,46,15.60
2009,04,24,15,47,15.60
2009,04,24,15,48,15.70
2009,04,24,15,49,15.60
2009,04,24,15,50,15.50
2009,04,24,15,51,15.50
2009,04,24,15,52,15.50
2009,04,24,15,53,15.50
2009,04,24,15,54,15.50
2009,04,24,15,55,15.60
2009,04,24,15,56,15.70
2009,04,24,15,57,15.70
2009,04,24,15,58,15.70
2009,04,24,15,59,15.80
2009,04,24,16,00,15.80
2009,04,24,16,01,15.80
2009,04,24,16,02,15.70
2009,04,24,16,03,15.60
2009,04,24,16,04,15.50
2009,04,24,16,05,15.40
2009,04,24,16,06,15.30
2009,04,24,16,07,15.30
2009,04,24,16,08,15.20
2009,04,24,16,09,15.20
2009,04,24,16,10,15.30
2009,04,24,16,11,15.30
2009,04,24,16,12,15.30
2009,04,24,16,13,15.30
2009,04,24,16,14,15.40
2009,04,24,16,15,15.50
2009,04,24,16,16,15.60
2009,04,24,16,17,15.60
2009,04,24,16,18,15.60
2009,04,24,16,19,15.60
2009,04,24,16,20,15.60
2009,04,24,16,21,15.60
2009,04,24,16,22,15.70
2009,04,24,16,23,15.70
2009,04,24,16,24,15.70
2009,04,24,16,25,15.60
2009,04,24,16,26,15.60
2009,04,24,16,27,15.60
2009,04,24,16,28,15.60
2009,04,24,16,29,15.60
2009,04,24,16,30,15.70
2009,04,24,16,31,15.70
2009,04,24,16,32,15.70
2009,04,24,16,33,15.80
2009,04,24,16,34,15.80
2009,04,24,16,35,15.90
2009,04,24,16,36,15.90
2009,04,24,16,37,15.80
2009,04,24,16,38,15.80
2009,04,24,16,39,15.70
2009,04,24,16,40,15.70
2009,04,24,16,41,15.80
2009,04,24,16,42,15.80
2009,04,24,16,43,15.70
2009,04,24,16,44,15.60
2009,04,24,16,45,15.60
2009,04,24,16,46,15.50
2009,04,24,16,47,15.40
2009,04,24,16,48,15.30
2009,04,24,16,49,15.20
2009,04,24,16,50,15.20
2009,04,24,16,51,15.10
2009,04,24,16,52,15.10
2009,04,24,16,53,15.10
2009,04,24,16,54,15.00
2009,04,24,16,55,15.00
2009,04,24,16,56,15.00
2009,04,24,16,57,15.00
2009,04,24,16,58,15.00
2009,04,24,16,59,15.00
2009,04,24,17,00,15.00
2009,04,24,17,01,15.00
2009,04,24,17,02,15.00
2009,04,24,17,03,15.00
2009,04,24,17,04,15.10
2009,04,24,17,05,15.10
2009,04,24,17,06,15.20
2009,04,24,17,07,15.30
2009,04,24,17,08,15.40
2009,04,24,17,09,15.50
2009,04,24,17,10,15.60
2009,04,24,17,11,15.60
2009,04,24,17,12,15.60
2009,04,24,17,13,15.60
2009,04,24,17,14,15.50
2009,04,24,17,15,15.50
2009,04,24,17,16,15.40
2009,04,24,17,17,15.40
2009,04,24,17,18,15.30
2009,04,24,17,19,15.10
2009,04,24,17,20,15.00
2009,04,24,17,21,15.00
2009,04,24,17,22,15.00
2009,04,24,17,23,15.00
2009,04,24,17,24,14.90
2009,04,24,17,25,14.80
2009,04,24,17,26,14.80
2009,04,24,17,27,14.80
2009,04,24,17,28,14.80
2009,04,24,17,29,14.80
2009,04,24,17,30,14.80
2009,04,24,17,31,14.70
2009,04,24,17,32,14.70
2009,04,24,17,33,14.70
2009,04,24,17,34,14.70
2009,04,24,17,35,14.80
2009,04,24,17,36,14.80
2009,04,24,17,37,14.80
2009,04,24,17,38,14.90
2009,04,24,17,39,14.90
2009,04,24,17,40,15.00
2009,04,24,17,41,15.00
2009,04,24,17,42,14.90
2009,04,24,17,43,14.90
2009,04,24,17,44,14.80
2009,04,24,17,45,14.80
2009,04,24,17,46,14.90
2009,04,24,17,47,14.90
2009,04,24,17,48,15.00
2009,04,24,17,49,15.00
2009,04,24,17,50,14.90
2009,04,24,17,51,14.70
2009,04,24,17,52,14.60
2009,04,24,17,53,14.60